Flag for China Weather past 2 weeks in Guiyang, Guizhou, China

Now
84 °F

Passing clouds.


Feels Like: 90 °F
Forecast: 65 / 90 °F
Wind: 3 mph from North

Location: Guiyang Airport

Current Time: Jul 24, 2014 at 12:13:21 PM

Latest Report: Jul 24, 2014 at 11:00 AM


Visibility: N/A

Pressure: 29.83 "Hg

Humidity: 66%

Dew point: 72 °F

Location of GuiyangLocation

Historic Weather in Guiyang — Graph

°F

Guiyang temperature yesterday

Maximum temperature yesterday: 90 °F (at 1:00 PM)
Minimum temperature yesterday: 66 °F (at 7:00 AM)
Average temperature yesterday: 80 °F

Past Weeks' High & Low Weather Summary

 TemperatureHumidityPressure
High95 °F (Jul 11, 3:00 PM)100% (Jul 11, 4:00 AM)29.98 "Hg (Jul 11, 4:00 AM)
Low66 °F (Jul 16, 11:00 AM)46% (Jul 23, 4:00 PM)29.68 "Hg (Jul 9, 4:00 PM)
Average74 °F86%29.86 "Hg
* Reported Jul 9 12:00 Noon — Jul 24 11:00 AM, Guiyang, Weather by CustomWeather, © 2014

Note: Actual official high and low records may vary slightly from our data, if they occured in-between our weather recording intervals... More about our weather records

Advertising

Guiyang weather history for previous 24 hours

 ConditionsComfort  
Time TempWeatherWind HumidityBarometerVisibility
11:00 AM
Jul 24
84 °FPassing clouds.3 mph66%29.83 "HgN/A
10:00 AM81 °FSunny.1 mph74%29.83 "Hg10 mi
9:00 AM77 °FClear.1 mph83%29.83 "Hg5 mi
8:00 AM73 °FPassing clouds.1 mph89%29.83 "Hg4 mi
7:00 AM66 °FPassing clouds.1 mph100%29.80 "Hg4 mi
6:00 AM66 °FPassing clouds.1 mph100%29.80 "Hg4 mi
5:00 AM66 °FFog.1 mph100%29.77 "Hg3 mi
4:00 AM66 °FFog.1 mph100%29.80 "Hg3 mi
3:00 AM66 °FPassing clouds.No wind100%29.80 "Hg5 mi
2:00 AM68 °FPassing clouds.1 mph94%29.80 "Hg5 mi
1:00 AM68 °FPassing clouds.1 mph100%29.83 "Hg5 mi
12:00 AM70 °FPassing clouds.3 mph88%29.83 "HgN/A
11:00 PM
Jul 23
70 °FPassing clouds.1 mph88%29.83 "HgN/A
10:00 PM73 °FPassing clouds.3 mph74%29.83 "HgN/A
9:00 PM77 °FThunderstorms. Mostly cloudy.8 mph65%29.83 "HgN/A
8:00 PM81 °FPassing clouds.6 mph66%29.77 "HgN/A
7:00 PM82 °FScattered clouds.1 mph70%29.74 "HgN/A
6:00 PM86 °FBroken clouds.3 mph59%29.74 "HgN/A
5:00 PM90 °FThunderstorms. Scattered clouds.3 mph49%29.74 "HgN/A
4:00 PM90 °FScattered clouds.3 mph46%29.74 "HgN/A
1:00 PM90 °FScattered clouds.6 mph52%29.83 "HgN/A
12:00 PM88 °FPassing clouds.3 mph55%29.86 "HgN/A
Weather by CustomWeather, © 2014

See weather overviewHow to use our weather pages